Weather Roundup
Issued by NWS

Home | Current Version | Previous Version | Text Only | Print | Product List | Glossary On
Versions: 1 2 3 4 5 6 7 8 9 10 11 12 13 14 15 16 17 18 19 20 21 22 23 24 25 26 27 28 29 30 31 32 33 34 35 36 37 38 39 40 41 42 43 44 45 46 47 48 49 50
000
NZUS93 KARX 271110
HRRWXR

CURRENT HOURLY OBSERVATIONS ACROSS
MUCH OF THE UPPER MISSISSIPPI VALLEY
NATIONAL WEATHER SERVICE LA CROSSE WI
600 AM CDT FRI MAY 27 2016


...SOUTHEAST MINNESOTA...


CITY           SKY/WX    TMP DP  RH WIND       PRES   REMARKS
ROCHESTER      CLOUDY    62  60  93 S5        29.84F
ROCHESTER/MAYO CLOUDY    63  63 100 SE5       29.84F
WINONA         CLOUDY    63  61  94 CALM      29.83F
AUSTIN         CLOUDY    63  55  77 SE3       29.83S
ALBERT LEA     CLOUDY    64  55  72 SE9       29.81S
DODGE CENTER   CLOUDY    63  57  82 S6        29.83F
PRESTON        CLOUDY    61  57  88 SE7       29.86F
OWATONNA       CLOUDY    64  55  72 SE8       29.81F
FARIBAULT      CLOUDY    66  55  68 SE5       29.81F
$$

...ELSEWHERE IN MINNESOTA...


CITY           SKY/WX    TMP DP  RH WIND       PRES   REMARKS
MINNEAPOLIS    CLOUDY    67  56  67 SE8       29.79F
INTNL FALLS    CLOUDY    51  50  96 CALM      29.83R
DULUTH         CLOUDY    49  46  90 CALM      29.85R
RED WING       CLOUDY    64  61  88 N1        29.81S
REDWOOD FALLS  CLOUDY    60  56  86 S6        29.74F
MANKATO        CLOUDY    64  54  68 S5        29.79F
WORTHINGTON    CLOUDY    57  55  93 W5        29.75F
FAIRMONT       CLOUDY    61  52  72 S6        29.77F
$$

...SOUTHWEST WISCONSIN...


CITY           SKY/WX    TMP DP  RH WIND       PRES   REMARKS
LA CROSSE      CLOUDY    65  60  84 SE6       29.83S
PRAIRIE DU CHI DRIZZLE   64  63  95 CALM      29.84F
BOSCOBEL       RAIN      65  64  97 N12       29.84F FOG
LONE ROCK      LGT RAIN  64  61  90 N9        29.86F
PLATTEVILLE    CLOUDY    64  63  97 N5        29.83F
FORT MC COY    MOCLDY    57  57  99 CALM      29.85S
CAMP DOUGLAS   MOCLDY    57 N/A N/A SE1       29.85S
MAUSTON-NEW LI MOSUNNY   59  59  99 CALM      29.85S
VIROQUA        CLOUDY    63  62  96 S14       29.90R
WIS DELLS      LGT RAIN  62  59  90 S21G31    29.91R
$$

...ELSEWHERE IN WISCONSIN...


CITY           SKY/WX    TMP DP  RH WIND       PRES   REMARKS
MILWAUKEE      CLOUDY    70  65  84 CALM      29.85F
MADISON        TSTM      66  60  81 N8        29.83F
GREEN BAY      CLEAR     59  57  93 CALM      29.87F
EAU CLAIRE     CLOUDY    60  57  89 NE3       29.84R
BLACK RVR FLS  FAIR      57  57 100 CALM      29.85S
MEDFORD        CLOUDY    55  55 100 CALM      29.90R
WAUSAU         CLOUDY    58  55  90 CALM      29.87F
WIS RAPIDS     MOCLDY    59  55  87 CALM      29.88S
MARSHFIELD     CLOUDY    59  55  87 NE6       29.86F
RICE LAKE      CLOUDY    60  56  88 CALM      29.86F
$$

...NORTHEAST IOWA...


CITY           SKY/WX    TMP DP  RH WIND       PRES   REMARKS
WATERLOO       CLOUDY    63  60  90 CALM      29.83R
DUBUQUE        CLOUDY    61  59  93 NE7       29.82F
DECORAH        CLOUDY    63  63 100 CALM      29.84F
MASON CITY     CLOUDY    62  58  86 E7        29.82F
CHARLES CITY   CLOUDY    63  63 100 E3        29.84F
OELWEIN        CLOUDY    63  63 100 SE8       29.85R FOG
$$

...ELSEWHERE IN IOWA...


CITY           SKY/WX    TMP DP  RH WIND       PRES   REMARKS
DES MOINES     CLOUDY    63  59  87 E3        29.79F
IOWA CITY      CLOUDY    63  60  90 NE3       29.83R
FORT DODGE     CLOUDY    63  55  77 E7        29.78F
MARSHALLTOWN   CLOUDY    62  60  93 E5        29.81F
CEDAR RAPIDS   CLOUDY    62  62 100 NW3       29.80S
$$

...NORTHERN ILLINOIS...


CITY           SKY/WX    TMP DP  RH WIND       PRES   REMARKS
CHICAGO-OHARE  MOCLDY    66  64  93 S7        29.87F
CHICAGO-MIDWAY CLOUDY    69  63  81 S7        29.87F
MOLINE         MOCLDY    64  60  87 SE6       29.82R
ROCKFORD       CLOUDY    69  61  75 N3        29.86F
PEORIA         CLOUDY    67  63  87 SE3       29.88R
$$

NOTE: "FAIR" INDICATES FEW OR NO CLOUDS BELOW 12,000 FEET WITH NO
SIGNIFICANT WEATHER AND/OR OBSTRUCTIONS TO VISIBILITY. WIND
SPEEDS ARE IN MILES-PER-HOUR.




USA.gov is the U.S. government's official web portal to all federal, state and local government web resources and services.